Regional Weather Roundup
Issued by NWS

Home | Current Version | Previous Version | Graphics & Text | Print | Product List | Glossary Off
Versions: 1 2 3 4 5 6 7 8 9 10 11 12 13 14 15 16 17 18 19 20 21 22 23 24 25 26 27 28 29 30 31 32 33 34 35 36 37 38 39 40 41 42 43 44 45 46 47 48 49 50

000
ASUS43 KDMX 301507
RWRIA

WEATHER ROUNDUP FOR IOWA
NATIONAL WEATHER SERVICE DES MOINES IA
1000 AM CDT THU JUL 30 2015

NOTE: "FAIR" INDICATES FEW OR NO CLOUDS BELOW 12,000 FEET WITH NO
SIGNIFICANT WEATHER AND/OR OBSTRUCTIONS TO VISIBILITY.

* - THESE STATIONS ARE NOT NWS STATIONS...THUS NOT UNDER NWS
QUALITY CONTROL.  THEY ALSO DO NOT REPORT WEATHER SUCH
AS PRECIPITATION OR FOG.

IAZ001>003-012>014-020>022-031>034-043>046-301600-
   NORTHWEST IOWA

CITY           SKY/WX    TMP DP  RH WIND       PRES   REMARKS
CARROLL *      SUNNY     75  61  60 W13       30.17S
CHEROKEE *     SUNNY     73  64  73 W6        30.17S
DENISON *      SUNNY     73  64  73 SW7       30.18R
LE MARS *      SUNNY     75  63  64 W7        30.18S
ORANGE CITY *  SUNNY     73  61  64 W10       30.16S
SHELDON *      SUNNY     73  63  68 VRB6      30.15R
SIOUX CITY     SUNNY     77  61  57 W8        30.18R
SPENCER        SUNNY     76  61  59 W9        30.15R
STORM LAKE *   SUNNY     73  63  68 W10       30.19R
$$

IAZ055>058-069>071-079>083-090>094-301600-
   SOUTHWEST IOWA

CITY           SKY/WX    TMP DP  RH WIND       PRES   REMARKS
ATLANTIC *     SUNNY     75  63  64 W6G13     30.21R
AUDUBON *      SUNNY     75  63  64 CALM      30.21R
CLARINDA *     SUNNY     77  66  69 W7        30.24R
COUNCIL BLFS * SUNNY     75  64  69 SW6       30.22R
CRESTON *      SUNNY     75  64  69 W9        30.21S
HARLAN  *      SUNNY     75  68  78 SW8       30.24R
LAMONI           N/A     78  65  63 W7        30.21R HX  80
RED OAK *      SUNNY     77  66  69 SW5       30.22S
SHENANDOAH *   SUNNY     75  68  78 SW5       30.22F
$$

IAZ047>049-059>061-072>074-084-301600-
   CENTRAL IOWA

CITY           SKY/WX    TMP DP  RH WIND       PRES   REMARKS
AMES           SUNNY     75  62  64 W12       30.15R
ANKENY *       SUNNY     77  61  57 W15       30.16S
CHARITON *     SUNNY     77  63  61 W9G16     30.18S
DES MOINES     MOSUNNY   80  58  46 W10       30.16R HX  80
GRINNELL*      SUNNY     75  63  64 W10       30.16S
KNOXVILLE *    SUNNY     77  63  61 W9        30.16S
MARSHALLTOWN   SUNNY     73  63  70 W14       30.14R
PELLA *        SUNNY     77  66  69 W7        30.18R
PERRY *          N/A     77  63  61 W10G21    30.17R
$$

IAZ004>006-015-016-023>025-035-036-301600-
   NORTH CENTRAL IOWA

CITY           SKY/WX    TMP DP  RH WIND       PRES   REMARKS
ALGONA *       SUNNY     75  64  69 SW8       30.13S
CLARION *      SUNNY     72  66  83 SW9       30.14S
ESTHERVILLE    SUNNY     74  61  63 W6        30.13R
FORT DODGE *   SUNNY     73  63  68 W10       30.16S
MASON CITY     SUNNY     77  63  61 W9        30.13R
FOREST CITY *  SUNNY     75  61  60 W5        30.12S
IOWA FALLS *     N/A     73  63  68 W9        30.15S
$$

IAZ007>011-017>019-026>030-037>042-050>054-066-301600-
   NORTHEAST IOWA

CITY           SKY/WX    TMP DP  RH WIND       PRES   REMARKS
CEDAR RAPIDS   SUNNY     74  66  76 W7        30.12S
CHARLES CITY * SUNNY     75  64  69 W7        30.12S
CLINTON *      SUNNY     75  64  69 W6        30.13S
DECORAH *      SUNNY     75  59  57 VRB6G14   30.09S
DUBUQUE        SUNNY     76  61  59 W9        30.11R
MONTICELLO *   SUNNY     77  64  65 W7        30.11S
OELWEIN *      SUNNY     73  63  68 NW6       30.12S
WATERLOO       SUNNY     77  62  59 W7        30.10S
$$

IAZ064-065-067-068-078-301600-
   EAST CENTRAL IOWA

CITY           SKY/WX    TMP DP  RH WIND       PRES   REMARKS
DAVENPORT      SUNNY     75  64  68 W5        30.12S
IOWA CITY      SUNNY     76  62  62 NW8       30.14R
MT. PLEASANT * SUNNY     79  54  41 W9        30.15S
MUSCATINE *    SUNNY     77  63  61 NW7       30.13R
QUAD CITIES    SUNNY     78  63  59 W7        30.11S HX  80
$$

IAZ062-063-075>077-085>089-095>099-301600-
   SOUTHEAST IOWA

CITY           SKY/WX    TMP DP  RH WIND       PRES   REMARKS
BURLINGTON     SUNNY     78  60  53 NW12      30.15R
FAIRFIELD *    SUNNY     77  61  57 W12       30.16S
FORT MADISON * SUNNY     77  63  61 NW10      30.16S
KEOKUK *       SUNNY     79  63  57 W8        30.16R HX  80
OSKALOOSA *      N/A     75  63  64 W10       30.17S
CENTERVILLE *  SUNNY     77  63  61 W10       30.20S
OTTUMWA        SUNNY     76  63  64 W9        30.15R
WASHINGTON *   SUNNY     75  64  69 W9G16     30.16S
$$

ABBREVIATIONS USED IN REMARKS
   TC - TEMPERATURES IN CELSIUS
  WCI - WIND CHILL INDEX
   HX - HEAT INDEX
  VSB - VISIBILITY
$$



USA.gov is the U.S. government's official web portal to all federal, state and local government web resources and services.